{"data":{"norad_id":65048,"intl_designator":"2025-162F","name":"HULIANWANG DIGUI-45","alt_names":[],"object_type":"PAYLOAD","status":"ACTIVE","operator":null,"country":"PRC","launch_date":"2025-07-30","launch_site_code":"WSC","launch_vehicle":null,"mission":null,"orbit_class":"UNKNOWN","rcs_meters":null,"size_class":null,"mass_kg":null,"dimensions":null,"purposes":[],"wikipedia_slug":null,"has_3d_model":false,"image_url":null,"decayed_at":null,"tle_current":{"epoch":"2026-05-25T02:51:58.381344Z","epoch_age_seconds":61409,"freshness":"FRESH","line1":"1 65048U 25162F   26145.11942571 -.00000084  00000+0  86784-4 0  9996","line2":"2 65048  50.0060 348.4326 0000474  40.0009 320.0898 13.29323610 40299","mean_motion":13.2932361,"eccentricity":4.74e-5,"inclination_deg":50.006,"raan_deg":348.4326,"arg_perigee_deg":40.0009,"mean_anomaly_deg":320.0898,"bstar":8.6784e-5,"rev_number":4029,"period_min":108.32576726746,"perigee_km":1148.9587930263,"apogee_km":1149.6723955322,"semimajor_km":7527.4525942792,"source":"CELESTRAK","updated_at":"2026-05-25T13:38:05.088192Z"}}}